VLG67ZB LFPO-LEMG

Flight info

Callsign VLG67ZB
Flight time 2h 0m
Altitude 35000
Route AGOPA DCT ARKIP DCT ARMAL DCT ARTAX DCT BEBIX DCT LMG DCT UVELI DCT OSMOB DCT ARVID DCT PPN DCT NOLSA DCT ALEPO DCT VASUM N10 BANEV DCT BAN DCT GOTOR DCT KAMPO DCT MONTO DCT CRISA N864 VULPE
Aircraft A320/M-SDFGHILORVWXY/LB1

Departure

Time 2026-05-05 20:39
Airport Paris-Orly Airport (LFPO)

Arrival

Time 2026-05-05 22:40
Airport Málaga-Costa del Sol Airport (LEMG)
Time Latitude Longitude Altitude Speed Heading
2026-05-05 20:04 48.73072 2.35897 285 ft 0 kts 134°
2026-05-05 20:28 48.73077 2.35890 292 ft 2 kts 134°
2026-05-05 20:28 48.73091 2.35868 292 ft 3 kts 134°
2026-05-05 20:29 48.73103 2.35849 292 ft 3 kts 143°
2026-05-05 20:29 48.73120 2.35836 289 ft 3 kts 180°
2026-05-05 20:29 48.73136 2.35842 289 ft 3 kts 225°
2026-05-05 20:29 48.73143 2.35855 292 ft 1 kts 237°
2026-05-05 20:30 48.73145 2.35859 292 ft 0 kts 237°
2026-05-05 20:33 48.73142 2.35851 289 ft 2 kts 237°
2026-05-05 20:33 48.73129 2.35822 293 ft 6 kts 237°
2026-05-05 20:34 48.73099 2.35753 290 ft 9 kts 237°
2026-05-05 20:34 48.73063 2.35668 291 ft 10 kts 238°
2026-05-05 20:34 48.73021 2.35572 290 ft 12 kts 231°
2026-05-05 20:34 48.72947 2.35525 289 ft 12 kts 185°
2026-05-05 20:35 48.72895 2.35439 291 ft 12 kts 229°
2026-05-05 20:35 48.72818 2.35447 293 ft 12 kts 165°
2026-05-05 20:35 48.72739 2.35481 290 ft 12 kts 164°
2026-05-05 20:35 48.72657 2.35516 290 ft 12 kts 164°
2026-05-05 20:36 48.72575 2.35550 294 ft 12 kts 164°
2026-05-05 20:36 48.72499 2.35582 290 ft 11 kts 164°
2026-05-05 20:36 48.72433 2.35610 290 ft 9 kts 164°
2026-05-05 20:36 48.72395 2.35627 279 ft 8 kts 164°
2026-05-05 20:37 48.72329 2.35636 300 ft 6 kts 198°
2026-05-05 20:37 48.72303 2.35622 300 ft 5 kts 199°
2026-05-05 20:37 48.72268 2.35604 301 ft 8 kts 199°
2026-05-05 20:37 48.72164 2.35626 301 ft 18 kts 164°
2026-05-05 20:38 48.72054 2.35704 302 ft 17 kts 136°
2026-05-05 20:38 48.71994 2.35849 304 ft 16 kts 120°
2026-05-05 20:38 48.71973 2.36029 305 ft 25 kts 72°
2026-05-05 20:38 48.72050 2.36443 304 ft 69 kts 74°
2026-05-05 20:39 48.72229 2.37415 299 ft 121 kts 74°
2026-05-05 20:39 48.72514 2.38971 340 ft 160 kts 71°
2026-05-05 20:39 48.72775 2.40475 965 ft 152 kts 71°
2026-05-05 20:39 48.73056 2.42040 1567 ft 159 kts 71°
2026-05-05 20:40 48.73348 2.43648 2231 ft 157 kts 69°
2026-05-05 20:40 48.73646 2.45233 2781 ft 156 kts 69°
2026-05-05 20:40 48.73946 2.46834 3332 ft 157 kts 71°
2026-05-05 20:40 48.74079 2.48507 3701 ft 171 kts 82°
2026-05-05 20:41 48.74157 2.50423 3914 ft 193 kts 83°
2026-05-05 20:41 48.74236 2.52572 4152 ft 212 kts 84°
2026-05-05 20:41 48.74314 2.54892 4517 ft 228 kts 86°
2026-05-05 20:41 48.74016 2.57278 5190 ft 239 kts 118°
2026-05-05 20:42 48.72768 2.59006 5963 ft 247 kts 151°
2026-05-05 20:42 48.71158 2.59965 6713 ft 250 kts 163°
2026-05-05 20:42 48.69473 2.60661 7421 ft 254 kts 164°
2026-05-05 20:42 48.67691 2.61328 7837 ft 274 kts 169°
2026-05-05 20:43 48.65770 2.61417 8473 ft 280 kts 188°
2026-05-05 20:43 48.63889 2.60647 9282 ft 282 kts 204°
2026-05-05 20:43 48.62206 2.59079 9906 ft 290 kts 222°
2026-05-05 20:43 48.60821 2.56793 10306 ft 305 kts 230°
2026-05-05 20:44 48.59409 2.54251 10498 ft 326 kts 231°
2026-05-05 20:44 48.57941 2.51572 11014 ft 334 kts 231°
2026-05-05 20:44 48.56455 2.48856 11681 ft 337 kts 231°
2026-05-05 20:44 48.54936 2.46147 12378 ft 339 kts 226°
2026-05-05 20:45 48.51060 2.41974 13684 ft 346 kts 213°
2026-05-05 20:45 48.49029 2.40006 14290 ft 348 kts 213°
2026-05-05 20:45 48.46978 2.38032 14892 ft 351 kts 213°
2026-05-05 20:46 48.44911 2.36046 15446 ft 354 kts 213°
2026-05-05 20:46 48.42826 2.34039 15994 ft 357 kts 213°
2026-05-05 20:46 48.40727 2.32015 16568 ft 359 kts 213°
2026-05-05 20:46 48.38614 2.29978 17152 ft 362 kts 213°
2026-05-05 20:47 48.36486 2.27923 17718 ft 365 kts 213°
2026-05-05 20:47 48.34345 2.25859 18254 ft 368 kts 213°
2026-05-05 20:47 48.32184 2.23773 18733 ft 371 kts 213°
2026-05-05 20:47 48.29999 2.21667 19217 ft 374 kts 213°
2026-05-05 20:48 48.27797 2.19550 19708 ft 377 kts 213°
2026-05-05 20:48 48.25574 2.17417 20183 ft 381 kts 212°
2026-05-05 20:48 48.23333 2.15276 20653 ft 383 kts 212°
2026-05-05 20:48 48.21040 2.13093 21080 ft 388 kts 212°
2026-05-05 20:49 48.18743 2.10907 21421 ft 394 kts 212°
2026-05-05 20:49 48.16415 2.08695 21813 ft 398 kts 212°
2026-05-05 20:49 48.14064 2.06457 22213 ft 402 kts 212°
2026-05-05 20:49 48.11683 2.04236 22662 ft 405 kts 208°
2026-05-05 20:50 48.09102 2.02515 23090 ft 407 kts 198°
2026-05-05 20:50 48.06345 2.01510 23495 ft 410 kts 187°
2026-05-05 20:50 48.03498 2.01253 23851 ft 411 kts 177°
2026-05-05 20:50 48.00637 2.01431 24222 ft 413 kts 176°
2026-05-05 20:51 47.97753 2.01612 24631 ft 414 kts 176°
2026-05-05 20:51 47.94871 2.01790 25042 ft 415 kts 176°
2026-05-05 20:51 47.91976 2.01961 25420 ft 417 kts 176°
2026-05-05 20:51 47.89067 2.02128 25786 ft 419 kts 176°
2026-05-05 20:52 47.86145 2.02291 26143 ft 421 kts 176°
2026-05-05 20:52 47.83208 2.02458 26490 ft 423 kts 176°
2026-05-05 20:52 47.80256 2.02635 26795 ft 425 kts 176°
2026-05-05 20:52 47.77294 2.02815 27167 ft 427 kts 176°
2026-05-05 20:53 47.74323 2.02995 27559 ft 428 kts 176°
2026-05-05 20:53 47.71341 2.03171 27912 ft 430 kts 176°
2026-05-05 20:53 47.68338 2.03346 28254 ft 433 kts 176°
2026-05-05 20:53 47.65324 2.03517 28590 ft 435 kts 176°
2026-05-05 20:54 47.62293 2.03691 28919 ft 437 kts 176°
2026-05-05 20:54 47.59243 2.03871 29247 ft 440 kts 176°
2026-05-05 20:54 47.56176 2.04052 29556 ft 443 kts 176°
2026-05-05 20:54 47.53092 2.04233 29909 ft 444 kts 176°
2026-05-05 20:55 47.50006 2.04411 30291 ft 444 kts 176°
2026-05-05 20:55 47.46882 2.04585 30711 ft 442 kts 176°
2026-05-05 20:55 47.43856 2.04749 31144 ft 440 kts 177°
2026-05-05 20:55 47.40766 2.04919 31614 ft 438 kts 176°
2026-05-05 20:56 47.37734 2.05091 32072 ft 435 kts 177°
2026-05-05 20:56 47.34715 2.05192 32592 ft 432 kts 182°
2026-05-05 20:56 47.31741 2.04721 33072 ft 429 kts 189°
2026-05-05 20:56 47.28807 2.03973 33534 ft 427 kts 189°
2026-05-05 20:57 47.25885 2.03231 33976 ft 425 kts 189°
2026-05-05 20:57 47.23022 2.02167 34201 ft 427 kts 202°
2026-05-05 20:57 47.20410 2.00057 34325 ft 432 kts 212°
2026-05-05 20:57 47.17885 1.97628 34445 ft 436 kts 213°
2026-05-05 20:58 47.15334 1.95154 34562 ft 441 kts 213°
2026-05-05 20:58 47.12767 1.92655 34679 ft 445 kts 213°
2026-05-05 20:58 47.10174 1.90135 34833 ft 449 kts 213°
2026-05-05 20:58 47.07549 1.87597 34878 ft 454 kts 213°
2026-05-05 20:59 47.02255 1.82516 34895 ft 456 kts 212°
2026-05-05 20:59 46.96944 1.77437 34889 ft 456 kts 212°
2026-05-05 21:00 46.91647 1.72362 34891 ft 455 kts 213°
2026-05-05 21:00 46.86355 1.67296 34897 ft 455 kts 213°
2026-05-05 21:01 46.81052 1.62253 34905 ft 455 kts 212°
2026-05-05 21:01 46.75736 1.57212 34895 ft 456 kts 212°
2026-05-05 21:02 46.70406 1.52173 34896 ft 456 kts 212°
2026-05-05 21:02 46.65045 1.47111 34896 ft 456 kts 212°
2026-05-05 21:03 46.59717 1.42073 34898 ft 457 kts 212°
2026-05-05 21:03 46.54390 1.37050 34902 ft 456 kts 212°
2026-05-05 21:04 46.49069 1.32066 34901 ft 455 kts 212°
2026-05-05 21:04 46.43754 1.27102 34904 ft 454 kts 212°
2026-05-05 21:05 46.38445 1.22136 34910 ft 455 kts 212°
2026-05-05 21:05 46.33124 1.17169 34903 ft 455 kts 212°
2026-05-05 21:06 46.27795 1.12219 34912 ft 455 kts 212°
2026-05-05 21:06 46.23327 1.08078 34916 ft 455 kts 212°
2026-05-05 21:07 46.17990 1.03140 34916 ft 455 kts 212°
2026-05-05 21:07 46.12658 0.98213 34922 ft 455 kts 212°
2026-05-05 21:08 46.07323 0.93297 34923 ft 455 kts 212°
2026-05-05 21:08 46.01987 0.88400 34919 ft 455 kts 212°
2026-05-05 21:09 45.96646 0.83506 34928 ft 455 kts 212°
2026-05-05 21:09 45.91313 0.78623 34940 ft 455 kts 212°
2026-05-05 21:10 45.85960 0.73730 34939 ft 456 kts 212°
2026-05-05 21:10 45.80598 0.68849 34941 ft 457 kts 212°
2026-05-05 21:11 45.75221 0.63982 34941 ft 457 kts 212°
2026-05-05 21:11 45.69854 0.59123 34946 ft 457 kts 212°
2026-05-05 21:12 45.64486 0.54261 34945 ft 457 kts 212°
2026-05-05 21:12 45.59121 0.49406 34945 ft 457 kts 212°
2026-05-05 21:13 45.53749 0.44572 34955 ft 456 kts 212°
2026-05-05 21:13 45.48383 0.39762 34956 ft 455 kts 212°
2026-05-05 21:14 45.42980 0.34912 34952 ft 457 kts 212°
2026-05-05 21:14 45.37593 0.30086 34954 ft 457 kts 212°
2026-05-05 21:15 45.32210 0.25289 34956 ft 457 kts 212°
2026-05-05 21:15 45.26819 0.20510 34956 ft 457 kts 212°
2026-05-05 21:16 45.21431 0.15739 34956 ft 457 kts 212°
2026-05-05 21:16 45.16054 0.10962 34958 ft 456 kts 212°
2026-05-05 21:17 45.10680 0.06198 34962 ft 455 kts 212°
2026-05-05 21:17 45.05306 0.01464 34962 ft 455 kts 212°
2026-05-05 21:18 44.99918 -0.03271 34970 ft 457 kts 212°
2026-05-05 21:18 44.94525 -0.08010 34967 ft 456 kts 212°
2026-05-05 21:19 44.89131 -0.12739 34967 ft 456 kts 212°
2026-05-05 21:19 44.83734 -0.17461 34966 ft 456 kts 212°
2026-05-05 21:20 44.78338 -0.22176 34966 ft 456 kts 212°
2026-05-05 21:20 44.72936 -0.26868 34973 ft 457 kts 212°
2026-05-05 21:21 44.67529 -0.31557 34978 ft 456 kts 212°
2026-05-05 21:21 44.62038 -0.36145 34978 ft 457 kts 210°
2026-05-05 21:22 44.56409 -0.40277 34978 ft 456 kts 208°
2026-05-05 21:22 44.50742 -0.44277 34981 ft 456 kts 208°
2026-05-05 21:23 44.45094 -0.48340 34978 ft 456 kts 208°
2026-05-05 21:23 44.39476 -0.52461 34980 ft 456 kts 209°
2026-05-05 21:24 44.33866 -0.56587 34980 ft 455 kts 209°
2026-05-05 21:24 44.28256 -0.60686 34984 ft 455 kts 209°
2026-05-05 21:25 44.22635 -0.64774 34989 ft 455 kts 209°
2026-05-05 21:25 44.17023 -0.68840 34996 ft 454 kts 209°
2026-05-05 21:26 44.11411 -0.72893 34993 ft 454 kts 209°
2026-05-05 21:26 44.05800 -0.76939 35000 ft 455 kts 209°
2026-05-05 21:27 44.00180 -0.80991 34989 ft 455 kts 209°
2026-05-05 21:27 43.94528 -0.85053 34990 ft 454 kts 209°
2026-05-05 21:28 43.88915 -0.89078 34997 ft 454 kts 209°
2026-05-05 21:28 43.83305 -0.93103 34992 ft 454 kts 209°
2026-05-05 21:29 43.77701 -0.97109 35002 ft 453 kts 210°
2026-05-05 21:29 43.72104 -1.01088 35002 ft 452 kts 210°
2026-05-05 21:30 43.66509 -1.05065 35003 ft 452 kts 210°
2026-05-05 21:30 43.60915 -1.09028 34996 ft 451 kts 210°
2026-05-05 21:31 43.55337 -1.12985 35016 ft 450 kts 210°
2026-05-05 21:31 43.49841 -1.16875 35021 ft 452 kts 210°
2026-05-05 21:32 43.44149 -1.20901 35020 ft 453 kts 210°
2026-05-05 21:32 43.38547 -1.24850 35028 ft 451 kts 210°
2026-05-05 21:33 43.32961 -1.28763 35028 ft 450 kts 210°
2026-05-05 21:33 43.27381 -1.32664 35028 ft 450 kts 210°
2026-05-05 21:34 43.21805 -1.36569 35017 ft 450 kts 210°
2026-05-05 21:34 43.16239 -1.40467 35032 ft 448 kts 210°
2026-05-05 21:35 43.10646 -1.44363 35037 ft 448 kts 210°
2026-05-05 21:35 43.05081 -1.48228 35036 ft 448 kts 210°
2026-05-05 21:36 42.99527 -1.52096 35025 ft 447 kts 211°
2026-05-05 21:36 42.93996 -1.55942 35037 ft 446 kts 211°
2026-05-05 21:37 42.88450 -1.59784 35030 ft 447 kts 211°
2026-05-05 21:37 42.82904 -1.63617 35029 ft 447 kts 211°
2026-05-05 21:38 42.77360 -1.67443 35031 ft 447 kts 211°
2026-05-05 21:38 42.71809 -1.71262 35030 ft 447 kts 211°
2026-05-05 21:39 42.67187 -1.74395 35033 ft 447 kts 210°
2026-05-05 21:39 42.61607 -1.78138 35033 ft 447 kts 210°
2026-05-05 21:40 42.56029 -1.81864 35034 ft 446 kts 211°
2026-05-05 21:40 42.50432 -1.85611 35037 ft 446 kts 211°
2026-05-05 21:41 42.44870 -1.89323 35041 ft 446 kts 211°
2026-05-05 21:41 42.39310 -1.93030 35043 ft 446 kts 211°
2026-05-05 21:42 42.33744 -1.96731 35043 ft 445 kts 211°
2026-05-05 21:42 42.28193 -2.00431 35045 ft 445 kts 211°
2026-05-05 21:43 42.22646 -2.04125 35043 ft 445 kts 211°
2026-05-05 21:43 42.17083 -2.07794 35021 ft 444 kts 211°
2026-05-05 21:44 42.11543 -2.11447 35040 ft 442 kts 211°
2026-05-05 21:44 42.06015 -2.15088 35048 ft 442 kts 211°
2026-05-05 21:45 42.00492 -2.18732 35045 ft 442 kts 211°
2026-05-05 21:45 41.94970 -2.22362 35043 ft 440 kts 212°
2026-05-05 21:46 41.89482 -2.25940 35047 ft 438 kts 212°
2026-05-05 21:46 41.84010 -2.29514 35053 ft 438 kts 212°
2026-05-05 21:47 41.78518 -2.33105 35045 ft 439 kts 212°
2026-05-05 21:47 41.72988 -2.36717 35034 ft 439 kts 212°
2026-05-05 21:48 41.67502 -2.40286 35045 ft 438 kts 212°
2026-05-05 21:48 41.62018 -2.43836 35040 ft 438 kts 212°
2026-05-05 21:49 41.56536 -2.47387 35044 ft 438 kts 212°
2026-05-05 21:49 41.51055 -2.50925 35034 ft 436 kts 212°
2026-05-05 21:50 41.45600 -2.54455 35056 ft 436 kts 212°
2026-05-05 21:50 41.40143 -2.57976 35038 ft 436 kts 212°
2026-05-05 21:51 41.34688 -2.61484 35041 ft 435 kts 212°
2026-05-05 21:51 41.29546 -2.65569 35037 ft 428 kts 220°
2026-05-05 21:52 41.22201 -2.72337 35040 ft 429 kts 220°
2026-05-05 21:53 41.17294 -2.76842 35040 ft 429 kts 220°
2026-05-05 21:53 41.12388 -2.81343 35032 ft 429 kts 220°
2026-05-05 21:54 41.07478 -2.85838 35030 ft 428 kts 220°
2026-05-05 21:54 41.02628 -2.90266 35032 ft 428 kts 220°
2026-05-05 21:55 40.97676 -2.94783 35032 ft 428 kts 220°
2026-05-05 21:55 40.92737 -2.99287 35027 ft 428 kts 220°
2026-05-05 21:56 40.87833 -3.03743 35026 ft 428 kts 220°
2026-05-05 21:56 40.82925 -3.08193 35027 ft 428 kts 220°
2026-05-05 21:57 40.78015 -3.12639 35026 ft 428 kts 220°
2026-05-05 21:57 40.73103 -3.17076 35024 ft 428 kts 220°
2026-05-05 21:58 40.68184 -3.21505 35015 ft 428 kts 220°
2026-05-05 21:58 40.63271 -3.25933 35011 ft 428 kts 220°
2026-05-05 21:59 40.58353 -3.30357 35005 ft 428 kts 220°
2026-05-05 21:59 40.53435 -3.34777 35003 ft 428 kts 220°
2026-05-05 22:00 40.48514 -3.39186 35000 ft 428 kts 219°
2026-05-05 22:00 40.43590 -3.43579 35006 ft 428 kts 220°
2026-05-05 22:01 40.38674 -3.47965 35194 ft 426 kts 220°
2026-05-05 22:01 40.36220 -3.50151 35439 ft 427 kts 219°
2026-05-05 22:01 40.33765 -3.52341 35685 ft 427 kts 219°
2026-05-05 22:01 40.31302 -3.54537 35904 ft 428 kts 219°
2026-05-05 22:02 40.28837 -3.56731 35990 ft 429 kts 219°
2026-05-05 22:02 40.23870 -3.61136 36002 ft 429 kts 219°
2026-05-05 22:03 40.18930 -3.65504 35984 ft 428 kts 219°
2026-05-05 22:03 40.13992 -3.69862 36003 ft 428 kts 219°
2026-05-05 22:04 40.09063 -3.74213 36001 ft 428 kts 219°
2026-05-05 22:04 40.04135 -3.78560 36003 ft 428 kts 219°
2026-05-05 22:05 39.99199 -3.82904 35999 ft 428 kts 219°
2026-05-05 22:05 39.94266 -3.87236 36002 ft 428 kts 219°
2026-05-05 22:06 39.89327 -3.91562 36009 ft 428 kts 219°
2026-05-05 22:06 39.84390 -3.95887 35999 ft 428 kts 219°
2026-05-05 22:07 39.79447 -4.00200 36003 ft 428 kts 219°
2026-05-05 22:07 39.74505 -4.04510 36003 ft 428 kts 219°
2026-05-05 22:08 39.69567 -4.08810 36002 ft 427 kts 219°
2026-05-05 22:08 39.64605 -4.13128 36005 ft 427 kts 219°
2026-05-05 22:09 39.59666 -4.17408 36009 ft 427 kts 219°
2026-05-05 22:09 39.54731 -4.21672 36008 ft 427 kts 219°
2026-05-05 22:10 39.49788 -4.25940 35972 ft 427 kts 219°
2026-05-05 22:10 39.44867 -4.30191 36007 ft 425 kts 219°
2026-05-05 22:11 39.39955 -4.34432 36009 ft 424 kts 219°
2026-05-05 22:11 39.35872 -4.37944 36012 ft 424 kts 219°
2026-05-05 22:12 39.30956 -4.42169 36006 ft 424 kts 219°
2026-05-05 22:12 39.26039 -4.46387 35983 ft 424 kts 219°
2026-05-05 22:13 39.20744 -4.49852 36005 ft 437 kts 202°
2026-05-05 22:13 39.14683 -4.51277 36005 ft 444 kts 196°
2026-05-05 22:14 39.08579 -4.52545 36002 ft 444 kts 196°
2026-05-05 22:14 39.02433 -4.53825 35971 ft 444 kts 196°
2026-05-05 22:15 38.96338 -4.55106 36002 ft 444 kts 196°
2026-05-05 22:15 38.90244 -4.56382 36003 ft 444 kts 196°
2026-05-05 22:16 38.84149 -4.57662 35999 ft 444 kts 196°
2026-05-05 22:16 38.78056 -4.58934 35993 ft 444 kts 195°
2026-05-05 22:17 38.71904 -4.59978 36002 ft 447 kts 193°
2026-05-05 22:17 38.65716 -4.60759 35997 ft 447 kts 192°
2026-05-05 22:18 38.59523 -4.61534 35996 ft 447 kts 193°
2026-05-05 22:18 38.53345 -4.62385 36001 ft 446 kts 193°
2026-05-05 22:19 38.47180 -4.63261 36003 ft 446 kts 193°
2026-05-05 22:19 38.41019 -4.64119 36002 ft 446 kts 192°
2026-05-05 22:20 38.34849 -4.64963 36001 ft 446 kts 192°
2026-05-05 22:20 38.28638 -4.65812 36003 ft 446 kts 192°
2026-05-05 22:21 38.22501 -4.66660 36002 ft 441 kts 193°
2026-05-05 22:21 38.16410 -4.67496 35997 ft 440 kts 193°
2026-05-05 22:22 38.10320 -4.68342 35998 ft 440 kts 193°
2026-05-05 22:22 38.04222 -4.69184 35216 ft 442 kts 192°
2026-05-05 22:22 38.01164 -4.69602 34644 ft 441 kts 192°
2026-05-05 22:23 37.98124 -4.70016 34064 ft 439 kts 192°
2026-05-05 22:23 37.95097 -4.70425 33476 ft 436 kts 192°
2026-05-05 22:23 37.92089 -4.70831 32834 ft 434 kts 192°
2026-05-05 22:23 37.89093 -4.71235 32302 ft 430 kts 192°
2026-05-05 22:24 37.86133 -4.71637 31754 ft 426 kts 193°
2026-05-05 22:24 37.83200 -4.72036 31271 ft 421 kts 192°
2026-05-05 22:24 37.80299 -4.72434 30789 ft 417 kts 192°
2026-05-05 22:24 37.77426 -4.72829 30322 ft 413 kts 192°
2026-05-05 22:25 37.74585 -4.73217 29815 ft 409 kts 192°
2026-05-05 22:25 37.71771 -4.73598 29351 ft 404 kts 192°
2026-05-05 22:25 37.68990 -4.73971 28905 ft 399 kts 192°
2026-05-05 22:25 37.66249 -4.74339 28465 ft 394 kts 192°
2026-05-05 22:26 37.63540 -4.74706 28047 ft 389 kts 192°
2026-05-05 22:26 37.60863 -4.75071 27629 ft 385 kts 192°
2026-05-05 22:26 37.58214 -4.75434 27231 ft 381 kts 192°
2026-05-05 22:26 37.55589 -4.75791 26841 ft 378 kts 191°
2026-05-05 22:27 37.52948 -4.76148 26449 ft 375 kts 191°
2026-05-05 22:27 37.50385 -4.76495 26081 ft 374 kts 191°
2026-05-05 22:27 37.47768 -4.76848 25706 ft 373 kts 191°
2026-05-05 22:27 37.45185 -4.77130 25342 ft 372 kts 189°
2026-05-05 22:28 37.42604 -4.77342 24983 ft 371 kts 188°
2026-05-05 22:28 37.40047 -4.77534 24391 ft 365 kts 188°
2026-05-05 22:28 37.37492 -4.77727 23085 ft 376 kts 188°
2026-05-05 22:28 37.34845 -4.77937 21593 ft 386 kts 187°
2026-05-05 22:29 37.32126 -4.78153 20089 ft 396 kts 187°
2026-05-05 22:29 37.29342 -4.78368 18551 ft 404 kts 187°
2026-05-05 22:29 37.26510 -4.78584 16774 ft 412 kts 186°
2026-05-05 22:29 37.23643 -4.78800 15209 ft 413 kts 186°
2026-05-05 22:30 37.20785 -4.79013 13900 ft 408 kts 186°
2026-05-05 22:30 37.17972 -4.79225 12558 ft 401 kts 186°
2026-05-05 22:30 37.15212 -4.79433 11283 ft 394 kts 186°
2026-05-05 22:30 37.12505 -4.79634 10046 ft 386 kts 185°
2026-05-05 22:31 37.09867 -4.79830 9196 ft 369 kts 185°
2026-05-05 22:31 37.07432 -4.80011 9078 ft 335 kts 185°
2026-05-05 22:31 37.05200 -4.80132 9002 ft 307 kts 183°
2026-05-05 22:31 37.03150 -4.80140 8924 ft 283 kts 182°
2026-05-05 22:32 37.01231 -4.80104 8674 ft 269 kts 181°
2026-05-05 22:32 36.99390 -4.80060 8338 ft 261 kts 181°
2026-05-05 22:32 36.97588 -4.80019 7995 ft 259 kts 181°
2026-05-05 22:32 36.95811 -4.79986 7826 ft 249 kts 181°
2026-05-05 22:33 36.94106 -4.79954 7618 ft 244 kts 179°
2026-05-05 22:33 36.92420 -4.79601 7244 ft 248 kts 163°
2026-05-05 22:33 36.90799 -4.78899 6871 ft 245 kts 160°
2026-05-05 22:33 36.89204 -4.78200 6511 ft 241 kts 161°
2026-05-05 22:34 36.87648 -4.77466 6140 ft 237 kts 153°
2026-05-05 22:34 36.86299 -4.76287 5643 ft 239 kts 135°
2026-05-05 22:34 36.85162 -4.74785 5258 ft 236 kts 130°
2026-05-05 22:34 36.84084 -4.73245 4922 ft 229 kts 129°
2026-05-05 22:35 36.83039 -4.71760 4598 ft 226 kts 128°
2026-05-05 22:35 36.82018 -4.70321 4276 ft 217 kts 129°
2026-05-05 22:35 36.81029 -4.68927 3962 ft 213 kts 129°
2026-05-05 22:35 36.80053 -4.67553 3662 ft 210 kts 129°
2026-05-05 22:36 36.79094 -4.66204 3378 ft 208 kts 129°
2026-05-05 22:36 36.78139 -4.64859 3074 ft 206 kts 130°
2026-05-05 22:36 36.77198 -4.63536 2784 ft 202 kts 130°
2026-05-05 22:36 36.76274 -4.62236 2501 ft 198 kts 130°
2026-05-05 22:37 36.75365 -4.60959 2228 ft 196 kts 130°
2026-05-05 22:37 36.74469 -4.59700 1954 ft 192 kts 131°
2026-05-05 22:37 36.73604 -4.58485 1686 ft 182 kts 131°
2026-05-05 22:37 36.72802 -4.57359 1476 ft 165 kts 131°
2026-05-05 22:38 36.72055 -4.56312 1226 ft 159 kts 131°
2026-05-05 22:38 36.71332 -4.55297 1008 ft 155 kts 132°
2026-05-05 22:38 36.70628 -4.54310 793 ft 150 kts 131°
2026-05-05 22:38 36.69935 -4.53338 580 ft 148 kts 132°
2026-05-05 22:39 36.69257 -4.52381 358 ft 145 kts 133°
2026-05-05 22:39 36.68583 -4.51436 148 ft 147 kts 133°
2026-05-05 22:39 36.67928 -4.50517 53 ft 129 kts 133°
2026-05-05 22:39 36.67490 -4.49911 51 ft 51 kts 131°
2026-05-05 22:40 36.67328 -4.49647 45 ft 31 kts 117°
2026-05-05 22:40 36.67287 -4.49466 43 ft 12 kts 96°
2026-05-05 22:40 36.67352 -4.49424 41 ft 13 kts 311°
2026-05-05 22:40 36.67412 -4.49502 43 ft 14 kts 315°
2026-05-05 22:41 36.67481 -4.49600 42 ft 16 kts 311°
2026-05-05 22:41 36.67556 -4.49705 43 ft 4 kts 311°
2026-05-05 22:41 36.67562 -4.49714 43 ft 3 kts 311°
2026-05-05 22:41 36.67581 -4.49739 43 ft 5 kts 311°
2026-05-05 22:42 36.67611 -4.49782 43 ft 8 kts 310°
2026-05-05 22:42 36.67629 -4.49809 43 ft 11 kts 310°
2026-05-05 22:42 36.67659 -4.49852 43 ft 13 kts 311°
2026-05-05 22:42 36.67670 -4.49868 43 ft 1 kts 311°
2026-05-05 22:43 36.67673 -4.49872 43 ft 5 kts 311°
2026-05-05 22:43 36.67697 -4.49897 43 ft 5 kts 334°
2026-05-05 22:43 36.67741 -4.49877 41 ft 8 kts 34°
2026-05-05 22:43 36.67781 -4.49863 42 ft 11 kts 15°
2026-05-05 22:44 36.67869 -4.49774 42 ft 19 kts 42°
2026-05-05 22:44 36.67973 -4.49660 42 ft 21 kts 43°
2026-05-05 22:44 36.68023 -4.49581 42 ft 0 kts 75°
2026-05-05 22:44 36.68055 -4.49566 42 ft 10 kts 24°
2026-05-05 22:45 36.68118 -4.49503 42 ft 13 kts 43°
2026-05-05 22:45 36.68176 -4.49409 42 ft 15 kts 83°
2026-05-05 22:45 36.68137 -4.49305 42 ft 5 kts 119°
2026-05-05 22:45 36.68106 -4.49302 42 ft 5 kts 208°
2026-05-05 22:46 36.68082 -4.49319 39 ft 4 kts 208°
2026-05-05 22:46 36.68066 -4.49329 42 ft 1 kts 208°
2026-05-05 22:46 36.68061 -4.49333 42 ft 0 kts 207°